{"data":{"norad_id":69697,"intl_designator":"2026-145W","name":"STARLINK-37976","alt_names":[],"object_type":"PAYLOAD","status":"ACTIVE","operator":null,"country":"US","launch_date":"2026-06-25","launch_site_code":"AFWTR","launch_vehicle":null,"mission":null,"orbit_class":"UNKNOWN","rcs_meters":null,"size_class":null,"mass_kg":null,"dimensions":null,"purposes":["comms"],"wikipedia_slug":null,"has_3d_model":false,"image_url":null,"decayed_at":null,"tle_current":{"epoch":"2026-09-20T00:28:40.395072Z","epoch_age_seconds":62991,"freshness":"FRESH","line1":"1 69697U 26145W   26263.01991198  .00010301  00000+0  32104-3 0  9999","line2":"2 69697  97.2851 109.7551 0001674  86.1052 274.0382 15.33437384 13471","mean_motion":15.33437384,"eccentricity":0.0001674,"inclination_deg":97.2851,"raan_deg":109.7551,"arg_perigee_deg":86.1052,"mean_anomaly_deg":274.0382,"bstar":0.00032104,"rev_number":1347,"period_min":93.906671053221,"perigee_km":464.42019857512,"apogee_km":466.71147028409,"semimajor_km":6843.7028344296,"source":"CELESTRAK","updated_at":"2026-09-20T09:00:44.256315Z"}}}